Regional Weather Roundup
Issued by NWS Newport/Morehead, NC

Current Version | Previous Version | Graphics & Text | Print | Product List | Glossary Off
Versions: 1 2 3 4 5 6 7 8 9 10 11 12 13 14 15 16 17 18 19 20 21 22 23 24 25 26 27 28 29 30 31 32 33 34 35 36 37 38 39 40 41 42 43 44 45 46 47 48 49 50

000
ASUS42 KMHX 211610
RWRMHX
WEATHER ROUNDUP FOR EASTERN NORTH CAROLINA
NATIONAL WEATHER SERVICE NEWPORT/MOREHEAD CITY NC
1200 PM EDT THU AUG 21 2014

NOTE: "FAIR" INDICATES FEW OR NO CLOUDS BELOW 12,000 FEET
WITH NO SIGNIFICANT WEATHER AND/OR OBSTRUCTIONS TO VISIBILITY

NCZ015>017-031-032-045>047-102-103-211700-
NORTH COAST

CITY           SKY/WX    TMP DP  RH WIND       PRES   REMARKS
EDENTON        SUNNY     84  76  78 SW6       30.05S
ELIZABETH CITY SUNNY     85  74  69 W8        30.04F
KITTY HAWK     MOSUNNY   84  76  74 S6        30.04R
MANTEO         MOSUNNY   82  75  78 S7        30.05R

$$

NCZ045>047-081-094-103-104-211700-
CENTRAL COAST

CITY           SKY/WX    TMP DP  RH WIND       PRES   REMARKS
FRISCO         MOSUNNY   81  76  84 VRB3      30.07R
SWANQUARTER      N/A     86 N/A N/A E6        30.03S

$$

NCZ095-097-098-100-101-211700-
SOUTHERN COAST

CITY           SKY/WX    TMP DP  RH WIND       PRES   REMARKS
BEAUFORT       MOSUNNY   87  80  79 S9        30.05F HX 103
CEDAR ISLAND     N/A     88 N/A N/A N3        30.09S
JACKSONVILLE   PTSUNNY   89  75  63 VRB3      30.04F
NEWPORT        NOT AVBL
PINEY ISLAND   MOSUNNY   89  78  70 VRB6      30.05R HX 103
WILMINGTON     MOSUNNY   92  73  53 NW5       30.05F HX 100


$$

NCZ011>013-027>030-043-044-078>080-089-090>093-098-211700-
COASTAL PLAIN

CITY           SKY/WX    TMP DP  RH WIND       PRES   REMARKS
AHOSKIE        SUNNY     83  73  72 CALM      30.04F
CLINTON        PTSUNNY   90  75  61 CALM      30.06F
ELIZABETHTOWN  MOSUNNY   88  72  58 CALM      30.06F
GOLDSBORO      SUNNY     86  79  78 N3        30.03F HX 100
GREENVILLE     MOSUNNY   86  75  70 NW3       30.06F
HAVELOCK       MOSUNNY   89  77  67 W8        30.05F HX 101
KENANSVILLE    MOSUNNY   88  72  58 NW6       30.06F
KINSTON        SUNNY     88  75  66 CALM      30.05F
NEW BERN       SUNNY     90  76  63 W5        30.05F HX 101
RICHLANDS      MOSUNNY   88  75  66 NW3       30.05F
ROANOKE RAPIDS NOT AVBL
ROCKY MOUNT    MOSUNNY   85  74  69 W5        30.05F
WASHINGTON     SUNNY     86  76  71 NW3       30.05F
WHITEVILLE     SUNNY     89  74  60 CALM      30.06F

$$

AMZ130-135-150-152-154-156-158-170-250-252-270-ANZ085-086-088-633-658-670-211700-
MARINE OBSERVATIONS

STATION/POSITION TIME  TEMP    WIND        PRES    WAVE   SWELL
                       AIR SEA DIR/SP/G            HT/PER HT/PER
                 (UTC) (F)     (DEG/KT/KT) (MB)    (FT/S) (FT/S)
CHESAPEAKE LIGHT 1500   78     200/  9/ 10 1018.0
BUOY 44014       1600   78 78  170/  8/ 10 1017.0    2/ 6   2/ 6
DUCK             1600   80 78  220/  7/  9 1016.6
2E DUCK          1600                        N/A     2/ 8
OREGON INLET     1600   81 82  190/ 15/ 16 1017.8
BUOY 44095       1600      80                N/A     3/ 7
20E OREGON INLET NOT AVBL
HATTERAS CG      1600   82 81  210/  5/  7 1018.6
DIAMOND BUOY     1600   80     190/  4/  6 1018.1    2/ 9   2/ 9
CAPE LOOKOUT     1500   82     150/  5/  5 1017.9
BEAUFORT LAB     1600   83 82  180/  9/ 10 1017.5
30 SE NEW RIVER  1600   82 83  200/  6/  6 1017.4    2/ 6   2/ 6
5 SE WRIGHTSVILL 1600   81 84  200/  8/  8   N/A
BUOY 41002       1536   82 82  250/ 14/ 16 1020.0    3/ 5   2/ 8
BUOY 41004       1600   83 84  250/ 10/ 12 1017.6    2/ 5   2/ 5

$$


USA.gov is the U.S. government's official web portal to all federal, state and local government web resources and services.